Skip Page Navigation
NASA JPL Caltech
NASA Logo - Jet Propulsion Laboratory + View the NASA Portal
+ Near-Earth Object (NEO) Program
Search JPL
JPL Home Earth Solar System Stars & Galaxies Technology
JPL Solar System Dynamics
BODIES ORBITS EPHEMERIDES TOOLS PHYSICAL DATA DISCOVERY FAQ SITE MAP
JPL Small-Body Database Browser
Search: [ help ]  
(2013 BV15)
Classification: Apollo [NEO]          SPK-ID: 3624597
Ephemeris | Orbit Diagram | Orbital Elements | Physical Parameters | Close-Approach Data ]

[ hide orbit diagram ]
Orbit Diagram
Note: Make sure you have Java enabled on your browser to see the applet. This applet is provided as a 3D orbit visualization tool. The applet was implemented using 2-body methods, and hence should not be used for determining accurate long-term trajectories (over several years or decades) or planetary encounter circumstances. For accurate long-term ephemerides, please instead use our Horizons system.
Orbit Viewer

Additional Notes: the orbits shown in the applet are color coded. The planets are white lines, and the asteroid/comet is a blue line. The bright white line indicates the portion of the orbit that is above the ecliptic plane, and the darker portion is below the ecliptic plane. Likewise for the asteroid/comet orbit, the light blue indicates the portion above the ecliptic plane, and the dark blue the portion below the ecliptic plane.

Orbit Viewer applet originally written and kindly provided by Osamu Ajiki (AstroArts), and further modified by Ron Baalke (JPL).


Orbital Elements at Epoch 2456400.5 (2013-Apr-18.0) TDB
Reference: JPL 38 (heliocentric ecliptic J2000)
 Element Value Uncertainty (1-sigma)   Units 
e .383427430839677 1.0987e-06  
a 1.495112698610804 2.3653e-06 AU
q .9218454777666871 2.2713e-07 AU
i .5624381941800857 6.6917e-06 deg
node 177.9378841910349 0.00053644 deg
peri 8.560700731065184 0.00052167 deg
M 16.39069833048013 3.3098e-05 deg
tp 2456370.097851323067
(2013-Mar-18.59785132)
2.8788e-05 JED
period 667.7429663471448
1.83
0.0015846
4.338e-06
d
yr
n .5391296024716851 1.2794e-06 deg/d
Q 2.068379919454921 3.2723e-06 AU
  Orbit Determination Parameters
   # obs. used (total)      149  
   # delay obs. used      3  
   # Doppler obs. used      4  
   data-arc span      26 days  
   first obs. used      2013-01-17  
   last obs. used      2013-02-12  
   planetary ephem.      DE405  
   SB-pert. ephem.      SB405-CPV-2  
   condition code      2  
   fit RMS      .25171  
   data source      ORB  
   producer      Otto Matic  
   solution date      2013-Feb-21 01:50:23  

Additional Information
 Earth MOID = .00512422 AU 
 T_jup = 4.470 
[ show covariance matrix ]

Ephemeris | Orbit Diagram | Orbital Elements | Physical Parameters | Close-Approach Data ]

Physical Parameter Table
Parameter Symbol Value Units Sigma Reference Notes
absolute magnitude H 24.299 mag .34005 11 autocmod 2.5b

[ show close-approach data ]
Ephemeris | Orbit Diagram | Orbital Elements | Physical Parameters | Close-Approach Data ]
ABOUT SSD CREDITS/AWARDS PRIVACY/COPYRIGHT GLOSSARY LINKS
FirstGov 2013-Jun-19 19:57 UT
(server date/time)  
NASA Home Page
Site Manager:   Donald K. Yeomans
Webmaster  Alan B. Chamberlin